Aérodrome :
LOGIN :

S'inscrire | Disclaimer

   EN    FR    IT 

 










Légende :    VFR   VFR Marginal   IFR   IFR Intensif   IFR Très Intensif
Visi : 
Plafond : 
>= 8 km
>= 3000ft
5 à 8 km
1000 à 3000 ft
1500m à 5 km
500 à 1000 ft
800 à 1500m
200 à 500 ft
< 800m
< 200 ft
Symboles :   Orages  Brouillard  Fortes neiges  Fortes précipitations  Vent > 20 kt
SIGMETs :   Divers  Orages  Givrage  Turbulence  Onde Orograph.  Cendres Volcan.







- Altitude de l'aérodrome : 458 ft
- Voir les cartes d'approche


LFSI - St-Dizier

DERNIER METAR :
  • 181100Z AUTO 19005KT 130V250 CAVOK 20/10 Q1014

METARs EXPIRÉS :
  • 181030Z AUTO 17005KT 120V200 CAVOK 19/10 Q1014
  • 181000Z AUTO 17005KT 120V240 CAVOK 19/10 Q1015
  • 180930Z AUTO 17005KT 120V190 CAVOK 18/10 Q1015
  • 180900Z AUTO VRB03KT CAVOK 18/10 Q1015
  • 180830Z AUTO 12004KT CAVOK 16/09 Q1015
  • 180800Z AUTO 11003KT 080V140 CAVOK 14/09 Q1015

TAF TAF LFSI
Valide du 18 à 09h jusqu'au 19 à 09h UTC


180800Z 1809/1909 17005KT CAVOK
Pas de NOTAMs connus pour ce terrain.



MET'MAP, la Météo Aéronautique d'un coup d'oeil ! - Copyright ORBIFLY Décembre 2007 - Disclaimer

ORBIFLY MET'MAP TEAM :

Programmation & Développement : Alexandra Zaïnal
Conception & Développement : Baudouin d'Aumeries
Co-Programmation & Développement : Marc-Olivier Méhu
Soutien technique & logistique : Manuel Goepfert

Contact : metmap@orbifly.com




SOURCES & CREDITS :

   NOAA